This demonstration page uses our WeatherBlox Daily Observations layout. Learn more.

Left ArrowRight Arrow

38.88101, -77.10428

Hourly Observations for March 2, 2019

Temp ( °F °C ) Dew Point ( °F °C ) Humidity (%) Winds ( mph kmh ) Pressure ( in mb ) Visibility ( mi km ) Precip ( " mm )
12:52 am 00:52 Cloudy with Light Rain 37 2.8 33 0.6 86 86 N 10 17 30.08 1019 4 6.43736 0 0.0254
1:52 am 01:52 Cloudy with Light Rain 36 2.2 33 0.6 89 89 NNW 10 17 30.07 1018 3 4.82802 0.01 0.254
2:52 am 02:52 Cloudy with Light Rain 36 2.2 33 0.6 89 89 N 10 17 30.05 1018 6 9.65604 0.03 0.762
3:16 am 03:16 Cloudy with Light Rain 36 2.2 33 0.6 89 89 NNW 10 17 30.06 1018 7 11.26538 0 0.0254
3:52 am 03:52 Cloudy with Light Rain 36 2.2 33 0.6 89 89 N 10 17 30.03 1017 7 11.26538 0.01 0.254
4:11 am 04:11 Cloudy 36 2.2 33 0.6 89 89 N 12 19 30.04 1017 7 11.26538 0 0.0254
4:52 am 04:52 Cloudy with Drizzle 36 2.2 33 0.6 89 89 NNW 12 19 30.05 1018 5 8.0467 0 0.0254
5:52 am 05:52 Cloudy with Drizzle 36 2.2 32 0 86 86 N 12 19 30.06 1018 4 6.43736 0 0.0254
6:37 am 06:37 Cloudy with Drizzle 36 2.2 33 0.6 89 89 NNW 8 13 30.07 1018 2.5 4.02335 0 0.0254
6:52 am 06:52 Cloudy with Drizzle 36 2.2 33 0.6 89 89 NNW 8 13 30.07 1018 3 4.82802 0 0.0254
7:05 am 07:05 Cloudy with Mist and Fog 37 2.8 33 0.6 86 86 N 9 15 30.08 1019 5 8.0467 0 0.0254
7:12 am 07:12 Cloudy with Mist and Fog 37 2.8 33 0.6 86 86 N 9 15 30.08 1019 6 9.65604 0 0.0254
7:18 am 07:18 Cloudy with Mist and Fog 37 2.8 33 0.6 86 86 N 7 11 30.08 1019 6 9.65604 0 0.0254
7:52 am 07:52 Cloudy 37 2.8 33 0.6 86 86 NNW 8 13 30.08 1019 8 12.87472 0 0.0254
8:07 am 08:07 Cloudy 37 2.8 34 1.1 89 89 NNW 8 13 30.09 1019 8 12.87472 0 0
8:52 am 08:52 Cloudy 38 3.3 34 1.1 86 86 NNW 8 13 30.09 1019 8 12.87472 0 0
9:52 am 09:52 Cloudy 40 4.4 34 1.1 79 79 NW 5 7 30.1 1019 10 16.0934 0 0
10:52 am 10:52 Cloudy 41 5 34 1.1 76 76 W 7 11 30.11 1020 10 16.0934 0 0
11:52 am 11:52 Cloudy 44 6.7 36 2.2 73 73 VRB 6 9 30.1 1019 10 16.0934 0 0
12:06 pm 12:06 Cloudy 43 6.1 36 2.2 76 76 NNE 7 11 30.1 1019 10 16.0934 0 0
12:52 pm 12:52 Cloudy 44 6.7 34 1.1 68 68 NW 12 19 30.11 1020 10 16.0934 0 0
1:52 pm 13:52 Cloudy 46 7.8 35 1.7 66 66 NW 10 17 30.09 1019 10 16.0934 0 0
2:00 pm 14:00 Mostly Cloudy 47 8.3 35 1.7 63 63 NW 13 20 30.09 1019 10 16.0934 0 0
2:52 pm 14:52 Mostly Cloudy 47 8.3 34 1.1 61 61 WNW 12 19 30.09 1019 10 16.0934 0 0
3:52 pm 15:52 Mostly Cloudy 47 8.3 35 1.7 63 63 NNW 10 17 30.07 1018 10 16.0934 0 0
4:52 pm 16:52 Mostly Cloudy 47 8.3 35 1.7 63 63 N 10 17 30.07 1018 10 16.0934 0 0
5:52 pm 17:52 Mostly Cloudy 46 7.8 35 1.7 66 66 NW 7 11 30.09 1019 10 16.0934 0 0
6:52 pm 18:52 Cloudy 46 7.8 34 1.1 63 63 VRB 5 7 30.11 1020 10 16.0934 0 0
7:52 pm 19:52 Cloudy 47 8.3 34 1.1 61 61 WNW 3 6 30.14 1021 10 16.0934 0 0
8:52 pm 20:52 Cloudy 47 8.3 34 1.1 61 61 NNW 7 11 30.14 1021 10 16.0934 0 0
9:52 pm 21:52 Cloudy 47 8.3 33 0.6 59 59 NW 7 11 30.16 1021 10 16.0934 0 0
10:52 pm 22:52 Cloudy 47 8.3 33 0.6 59 59 NW 6 9 30.16 1021 10 16.0934 0 0
11:52 pm 23:52 Cloudy 47 8.3 32 0 56 56 WNW 5 7 30.14 1021 10 16.0934 0 0

Powered by AerisWeather